Back to catalog

STARLINK-35466

AliveCommunicationsVLEO
NORAD 66457·PAYLOAD·🇺🇸 United States

Launched Nov 15, 2025 from Cape Canaveral Space Force Station

Loading…

Next Passes (next 24 hours)

TLE

FreshSource: CelesTrak SupGP

Epoch: Sep 14, 2026, 15:19 UTC

1 66457C 25262B   26257.63868056  .00051219  00000+0  18574-2 0  2570
2 66457  43.0016 309.2959 0001350 278.9725 358.8166 15.27513946    11

Track STARLINK-35466 in real time with AllMySat

Download on the App Store